Location: Standeford and Andreas Observatories
(44.1397°N, 93.9969°W)
Time: 03:11:57
(UTC-05:00)

Cosmos 1500 Rocket - Visible Passes

Search period start: 01 October 2014 00:00
Search period end: 11 October 2014 00:00
Orbit: 606 x 633 km, 82.5° (Epoch: 29 September)

Date Brightness Start Highest point End Pass type
(mag) Time Alt. Az. Time Alt. Az. Time Alt. Az.
01 Oct 4.7 06:33:38 10° SSE 06:37:56 50° E 06:42:16 10° NNE visible
03 Oct 6.7 05:32:30 10° SE 05:35:20 17° E 05:38:10 10° NE visible
04 Oct 5.7 05:48:40 10° SSE 05:52:31 29° E 05:56:24 10° NNE visible
05 Oct 4.5 06:05:28 10° S 06:09:49 54° E 06:14:11 10° NNE visible
06 Oct 3.5 06:22:44 10° S 06:27:11 82° W 06:31:42 10° N visible
07 Oct 6.5 05:04:13 10° SE 05:07:11 18° E 05:10:10 10° NE visible
07 Oct 3.9 06:40:24 10° SSW 06:44:40 44° WNW 06:48:59 10° N visible
08 Oct 5.5 05:20:27 10° SSE 05:24:23 31° E 05:28:20 10° NNE visible
09 Oct 4.2 05:37:18 10° S 05:41:40 57° E 05:46:04 10° NNE visible
10 Oct 6.9 04:21:20 10° E 04:21:54 10° E 04:22:28 10° ENE visible
10 Oct 3.5 05:54:36 10° SSW 05:59:03 77° W 06:03:33 10° N visible
